Beaumont, TX

9:47 PM CDT on April 25, 2017 (GMT -0500)
Southeast Texas Regional

Weather History for KBPT - January, 2014

Change the Weather History Date:

Friday, January 10, 2014

  Actual Average Record
Temperature  
Mean Temperature 63 °F 52 °F  
Max Temperature 70 °F 62 °F 79 °F (1950)
Min Temperature 55 °F 43 °F 16 °F (1962)
Degree Days  
Heating Degree Days 2 13  
Month to date heating degree days 176 130  
Since 1 July heating degree days 831 680  
Cooling Degree Days 0 0  
Month to date cooling degree days 0 0  
Year to date cooling degree days 0 0  
Growing Degree Days 12 (Base 50)    
Moisture  
Dew Point 59 °F    
Average Humidity 87    
Maximum Humidity 100    
Minimum Humidity 73    
Precipitation  
Precipitation 0.32 in 0.17 in 2.25 in (1991)
Month to date precipitation 0.72 1.79  
Year to date precipitation 0.72 1.79  
Snow  
Snow 0.00 in 0.00 in T in (1973)
Month to date snowfall 0.0 0.0  
Since 1 July snowfall 0.0 T  
Snow Depth 0.00 in    
Sea Level Pressure  
Sea Level Pressure 29.95 in    
Wind  
Wind Speed 11 mph (SE)    
Max Wind Speed 20 mph    
Max Gust Speed 28 mph    
Visibility 4 miles    
Events Fog , Rain    
T = Trace of Precipitation, MM = Missing Value Source: NWS Daily Summary

Daily Weather History Graph

Daily Weather History Graph

Search for Another Location

Airport or City:

Trip Planner

Search our weather history database for the weather conditions in past years. The results will help you decide how hot, cold, wet, or windy it might be!

Date:

Astronomy

Jan. 10, 2014 Rise Set
Actual Time 7:12 AM CST 5:34 PM CST
Civil Twilight 6:46 AM CST 6:00 PM CST
Nautical Twilight 6:17 AM CST 6:30 PM CST
Astronomical Twilight 5:48 AM CST 6:59 PM CST
Moon 1:33 PM CST (1/10) 2:27 AM CST (1/10)
Length of Visible Light 11h 13m
Length of Day
10h 21m
Waxing Gibbous, 75% of the Moon is Illuminated
Jan 10
Waxing Gibbous
Jan 15
Full
Jan 23
Last Quarter
Jan 30
New
Feb 6
First Quarter

Hourly Weather History & Observations

Time (CST) Temp. Dew Point Humidity Pressure Visibility Wind Dir Wind Speed Gust Speed Precip Events Conditions
12:33 AM 55.4 °F 53.6 °F 94% 30.11 in 9.0 mi ESE 8.1 mph - N/A   Overcast
12:53 AM 55.9 °F 53.1 °F 90% 30.10 in 8.0 mi ESE 6.9 mph - N/A   Overcast
1:36 AM 55.4 °F 53.6 °F 94% 30.09 in 7.0 mi ESE 10.4 mph - N/A   Overcast
1:53 AM 55.9 °F 54.0 °F 93% 30.08 in 7.0 mi ESE 11.5 mph - N/A   Overcast
2:36 AM 55.4 °F 53.6 °F 94% 30.07 in 1.8 mi ESE 10.4 mph - N/A   Overcast
2:46 AM 55.4 °F 53.6 °F 94% 30.06 in 1.0 mi ESE 8.1 mph - N/A   Overcast
2:53 AM 55.9 °F 54.0 °F 93% 30.06 in 1.8 mi ESE 10.4 mph - N/A   Overcast
3:01 AM 55.4 °F 53.6 °F 94% 30.06 in 2.5 mi ESE 10.4 mph - N/A   Overcast
3:22 AM 55.4 °F 53.6 °F 94% 30.06 in 1.2 mi ESE 9.2 mph - N/A   Overcast
3:38 AM 55.4 °F 53.6 °F 94% 30.05 in 0.5 mi ESE 9.2 mph - N/A Fog Fog
3:50 AM 55.4 °F 53.6 °F 94% 30.05 in 0.2 mi East 8.1 mph - N/A Fog Fog
3:51 AM 55.0 °F 54.0 °F 96% 30.05 in 0.2 mi ESE 8.1 mph - N/A Fog Fog
4:11 AM 55.4 °F 53.6 °F 94% 30.05 in 0.5 mi East 8.1 mph - N/A Fog Fog
4:32 AM 55.4 °F 53.6 °F 94% 30.04 in 0.2 mi East 6.9 mph - N/A Fog Fog
4:53 AM 55.0 °F 54.0 °F 96% 30.04 in 0.2 mi East 8.1 mph - N/A Fog Fog
5:02 AM 55.4 °F 53.6 °F 94% 30.03 in 0.5 mi East 8.1 mph - N/A Fog Fog
5:53 AM 55.0 °F 54.0 °F 96% 30.02 in 0.8 mi East 9.2 mph - N/A   Mist
6:31 AM 55.4 °F 55.4 °F 100% 30.02 in 1.5 mi ESE 10.4 mph - N/A   Overcast
6:38 AM 55.4 °F 55.4 °F 100% 30.02 in 3.0 mi ESE 9.2 mph - N/A   Overcast
6:53 AM 55.9 °F 55.0 °F 97% 30.02 in 4.0 mi ESE 10.4 mph - N/A   Overcast
7:53 AM 55.9 °F 55.0 °F 97% 30.02 in 3.0 mi ESE 10.4 mph - N/A   Overcast
8:08 AM 55.4 °F 55.4 °F 100% 30.02 in 2.5 mi ESE 10.4 mph - N/A   Overcast
8:39 AM 55.4 °F 55.4 °F 100% 30.03 in 3.0 mi ESE 9.2 mph - N/A   Overcast
8:46 AM 55.4 °F 55.4 °F 100% 30.03 in 2.5 mi ESE 8.1 mph - N/A   Overcast
8:53 AM 55.9 °F 55.0 °F 97% 30.03 in 2.0 mi ESE 9.2 mph - N/A   Overcast
9:39 AM 57.2 °F 55.4 °F 94% 30.03 in 3.0 mi ESE 11.5 mph - N/A   Overcast
9:53 AM 57.9 °F 57.0 °F 97% 30.03 in 4.0 mi ESE 10.4 mph - N/A   Overcast
10:53 AM 61.0 °F 57.9 °F 90% 30.01 in 7.0 mi SE 10.4 mph - N/A   Overcast
11:45 AM 64.4 °F 59.0 °F 83% 29.96 in 9.0 mi SE 10.4 mph - N/A   Overcast
11:53 AM 64.0 °F 60.1 °F 87% 29.96 in 9.0 mi SSE 12.7 mph - N/A   Overcast
12:10 PM 64.4 °F 60.8 °F 88% 29.95 in 8.0 mi SSE 10.4 mph - N/A   Overcast
12:53 PM 68.0 °F 61.0 °F 78% 29.91 in 10.0 mi South 9.2 mph - N/A   Overcast
1:53 PM 68.0 °F 60.1 °F 76% 29.88 in 10.0 mi South 9.2 mph - N/A   Overcast
2:53 PM 70.0 °F 61.0 °F 73% 29.86 in 10.0 mi South 13.8 mph - N/A   Overcast
3:21 PM 66.2 °F 62.6 °F 88% 29.86 in 10.0 mi South 11.5 mph 19.6 mph 0.00 in Rain Light Rain
3:53 PM 66.0 °F 63.0 °F 90% 29.86 in 2.0 mi South 11.5 mph - 0.00 in   Overcast
3:55 PM 66.2 °F 62.6 °F 88% 29.86 in 8.0 mi South 11.5 mph - N/A   Overcast
4:26 PM 66.2 °F 62.6 °F 88% 29.85 in 3.0 mi SSE 13.8 mph - 0.00 in Rain Light Rain
4:30 PM 66.2 °F 62.6 °F 88% 29.85 in 2.0 mi SSE 13.8 mph - 0.00 in Rain Light Rain
4:35 PM 66.2 °F 62.6 °F 88% 29.85 in 2.0 mi South 13.8 mph - 0.00 in Rain Light Rain
4:53 PM 64.9 °F 63.0 °F 93% 29.85 in 1.0 mi SSE 16.1 mph - 0.00 in Rain Light Rain
5:50 PM 64.4 °F 62.6 °F 94% 29.84 in 8.0 mi South 13.8 mph - 0.02 in   Overcast
5:53 PM 64.9 °F 63.0 °F 93% 29.83 in 9.0 mi South 12.7 mph - 0.02 in   Overcast
6:31 PM 66.2 °F 64.4 °F 94% 29.83 in 2.5 mi South 16.1 mph - 0.04 in Rain Heavy Rain
6:43 PM 66.2 °F 64.4 °F 94% 29.83 in 4.0 mi South 12.7 mph - 0.08 in Rain Rain
6:50 PM 64.4 °F 64.4 °F 100% 29.83 in 2.0 mi South 10.4 mph - 0.08 in Rain Light Rain
6:53 PM 64.9 °F 64.0 °F 97% 29.83 in 2.0 mi South 12.7 mph 19.6 mph 0.09 in Rain Light Rain
7:53 PM 66.0 °F 64.9 °F 96% 29.84 in 4.0 mi South 16.1 mph 23.0 mph 0.20 in Rain Rain
8:53 PM 66.0 °F 64.0 °F 93% 29.84 in 10.0 mi SSW 12.7 mph - 0.01 in   Overcast
9:53 PM 66.0 °F 64.9 °F 96% 29.85 in 3.0 mi SSW 11.5 mph - N/A   Overcast
10:03 PM 66.2 °F 64.4 °F 94% 29.85 in 2.0 mi SSW 11.5 mph - N/A   Overcast
10:13 PM 66.2 °F 64.4 °F 94% 29.85 in 1.5 mi SSW 10.4 mph - N/A   Overcast
10:53 PM 66.0 °F 64.9 °F 96% 29.86 in 1.2 mi SW 8.1 mph - N/A   Overcast
11:24 PM 66.2 °F 64.4 °F 94% 29.86 in 1.5 mi SW 10.4 mph - N/A   Overcast
11:34 PM 66.2 °F 64.4 °F 94% 29.86 in 3.0 mi SW 12.7 mph - N/A   Overcast
11:53 PM 66.0 °F 64.9 °F 96% 29.86 in 8.0 mi SW 10.4 mph - N/A   Overcast